RYR3232 LPPR-LEBL

Flight info

Callsign RYR3232
Flight time 1h 19m
Altitude 32000
Route BELDU DCT CANAR DCT ADORO DCT FITSE DCT DGO N725 LOBAR
Aircraft B738/M-SDE2E3FGHIRWXY/LB1

Departure

Time 2026-05-07 08:57
Airport Francisco de Sá Carneiro Airport (LPPR)

Arrival

Time 2026-05-07 10:16
Airport Josep Tarradellas Barcelona-El Prat Airport (LEBL)
Time Latitude Longitude Altitude Speed Heading
2026-05-07 08:42 41.24160 -8.67669 233 ft 0 kts 260°
2026-05-07 08:50 41.24164 -8.67635 237 ft 4 kts 261°
2026-05-07 08:50 41.24168 -8.67600 238 ft 4 kts 265°
2026-05-07 08:50 41.24168 -8.67578 236 ft 2 kts 289°
2026-05-07 08:51 41.24162 -8.67566 237 ft 2 kts 337°
2026-05-07 08:51 41.24151 -8.67561 237 ft 2 kts 348°
2026-05-07 08:51 41.24148 -8.67560 237 ft 0 kts 348°
2026-05-07 08:53 41.24169 -8.67566 237 ft 7 kts 348°
2026-05-07 08:53 41.24235 -8.67598 240 ft 14 kts 316°
2026-05-07 08:54 41.24326 -8.67713 230 ft 22 kts 341°
2026-05-07 08:54 41.24509 -8.67761 218 ft 32 kts 349°
2026-05-07 08:54 41.24754 -8.67827 207 ft 40 kts 343°
2026-05-07 08:54 41.25037 -8.67955 198 ft 38 kts 349°
2026-05-07 08:55 41.25262 -8.68013 181 ft 35 kts 349°
2026-05-07 08:55 41.25487 -8.68071 174 ft 32 kts 349°
2026-05-07 08:55 41.25662 -8.68137 169 ft 17 kts 314°
2026-05-07 08:55 41.25664 -8.68289 170 ft 17 kts 259°
2026-05-07 08:56 41.25626 -8.68340 171 ft 0 kts 171°
2026-05-07 08:56 41.25625 -8.68340 171 ft 0 kts 171°
2026-05-07 08:56 41.25465 -8.68298 175 ft 56 kts 168°
2026-05-07 08:56 41.24868 -8.68142 199 ft 116 kts 169°
2026-05-07 08:57 41.23904 -8.67895 245 ft 162 kts 170°
2026-05-07 08:57 41.22766 -8.67625 833 ft 165 kts 170°
2026-05-07 08:57 41.21620 -8.67338 1513 ft 171 kts 169°
2026-05-07 08:57 41.20446 -8.67015 2164 ft 180 kts 168°
2026-05-07 08:58 41.19112 -8.66648 2463 ft 210 kts 168°
2026-05-07 08:58 41.17606 -8.66231 2760 ft 231 kts 168°
2026-05-07 08:58 41.15945 -8.65768 3075 ft 253 kts 168°
2026-05-07 08:58 41.14195 -8.65276 3858 ft 258 kts 168°
2026-05-07 08:59 41.12469 -8.64789 4861 ft 257 kts 167°
2026-05-07 08:59 41.10743 -8.64123 5686 ft 261 kts 152°
2026-05-07 08:59 41.09362 -8.62572 6567 ft 264 kts 127°
2026-05-07 08:59 41.08611 -8.60331 7318 ft 273 kts 102°
2026-05-07 09:00 41.08629 -8.57784 8074 ft 280 kts 81°
2026-05-07 09:00 41.09014 -8.55231 8861 ft 285 kts 79°
2026-05-07 09:00 41.09422 -8.52626 9610 ft 291 kts 79°
2026-05-07 09:00 41.09902 -8.49993 10285 ft 299 kts 71°
2026-05-07 09:01 41.10754 -8.47362 10519 ft 323 kts 65°
2026-05-07 09:01 41.11804 -8.44601 10696 ft 346 kts 64°
2026-05-07 09:01 41.12933 -8.41667 10903 ft 367 kts 64°
2026-05-07 09:01 41.14075 -8.38640 11366 ft 377 kts 64°
2026-05-07 09:02 41.15233 -8.35502 12107 ft 379 kts 64°
2026-05-07 09:02 41.16384 -8.32337 12733 ft 385 kts 65°
2026-05-07 09:02 41.17548 -8.29107 13414 ft 389 kts 65°
2026-05-07 09:02 41.18716 -8.25857 14055 ft 393 kts 65°
2026-05-07 09:03 41.19898 -8.22567 14671 ft 395 kts 65°
2026-05-07 09:03 41.21087 -8.19258 15311 ft 399 kts 65°
2026-05-07 09:03 41.22289 -8.15908 15894 ft 403 kts 65°
2026-05-07 09:03 41.23495 -8.12542 16557 ft 405 kts 65°
2026-05-07 09:04 41.24715 -8.09137 17075 ft 410 kts 65°
2026-05-07 09:04 41.25940 -8.05711 17731 ft 412 kts 65°
2026-05-07 09:04 41.27164 -8.02285 18219 ft 417 kts 65°
2026-05-07 09:04 41.28407 -7.98801 18820 ft 418 kts 65°
2026-05-07 09:05 41.29659 -7.95287 19259 ft 422 kts 65°
2026-05-07 09:05 41.30912 -7.91764 19847 ft 423 kts 64°
2026-05-07 09:05 41.32172 -7.88219 20354 ft 425 kts 64°
2026-05-07 09:05 41.33437 -7.84656 20899 ft 427 kts 64°
2026-05-07 09:06 41.34707 -7.81074 21383 ft 429 kts 64°
2026-05-07 09:06 41.35912 -7.77431 21886 ft 432 kts 71°
2026-05-07 09:06 41.36451 -7.73484 22295 ft 435 kts 84°
2026-05-07 09:06 41.36742 -7.69463 22782 ft 438 kts 84°
2026-05-07 09:07 41.37033 -7.65453 23156 ft 442 kts 84°
2026-05-07 09:07 41.37355 -7.61372 23595 ft 443 kts 83°
2026-05-07 09:07 41.37702 -7.57268 23983 ft 446 kts 83°
2026-05-07 09:07 41.38061 -7.53160 24310 ft 449 kts 83°
2026-05-07 09:08 41.38425 -7.49017 24618 ft 452 kts 83°
2026-05-07 09:08 41.38789 -7.44836 24901 ft 456 kts 83°
2026-05-07 09:08 41.39152 -7.40635 25247 ft 457 kts 82°
2026-05-07 09:08 41.39510 -7.36474 25578 ft 459 kts 82°
2026-05-07 09:09 41.39874 -7.32229 25881 ft 462 kts 82°
2026-05-07 09:09 41.40237 -7.27960 26155 ft 465 kts 82°
2026-05-07 09:09 41.40602 -7.23667 26437 ft 468 kts 82°
2026-05-07 09:09 41.40967 -7.19352 26762 ft 469 kts 83°
2026-05-07 09:10 41.41330 -7.15031 27107 ft 470 kts 83°
2026-05-07 09:10 41.41693 -7.10700 27399 ft 472 kts 83°
2026-05-07 09:10 41.42056 -7.06339 27647 ft 474 kts 83°
2026-05-07 09:10 41.42420 -7.01954 27958 ft 476 kts 83°
2026-05-07 09:11 41.42776 -6.97638 28369 ft 474 kts 83°
2026-05-07 09:11 41.43135 -6.93278 28789 ft 473 kts 82°
2026-05-07 09:11 41.43490 -6.88929 29170 ft 473 kts 82°
2026-05-07 09:11 41.43845 -6.84573 29526 ft 473 kts 82°
2026-05-07 09:12 41.44198 -6.80226 30018 ft 469 kts 83°
2026-05-07 09:12 41.44546 -6.75914 30414 ft 467 kts 83°
2026-05-07 09:12 41.44893 -6.71591 30658 ft 469 kts 83°
2026-05-07 09:12 41.45239 -6.67258 30869 ft 471 kts 83°
2026-05-07 09:13 41.45584 -6.62917 31123 ft 471 kts 83°
2026-05-07 09:13 41.45927 -6.58574 31413 ft 471 kts 83°
2026-05-07 09:13 41.46270 -6.54230 31713 ft 470 kts 83°
2026-05-07 09:13 41.46610 -6.49886 31936 ft 471 kts 83°
2026-05-07 09:14 41.47291 -6.41151 31925 ft 473 kts 84°
2026-05-07 09:14 41.47956 -6.32511 31921 ft 468 kts 84°
2026-05-07 09:15 41.49353 -6.24058 31924 ft 468 kts 68°
2026-05-07 09:15 41.51841 -6.16038 31925 ft 468 kts 67°
2026-05-07 09:16 41.54346 -6.08018 31930 ft 468 kts 68°
2026-05-07 09:16 41.56788 -6.00007 31934 ft 469 kts 69°
2026-05-07 09:17 41.59227 -5.91902 31937 ft 471 kts 69°
2026-05-07 09:17 41.61664 -5.83768 31932 ft 472 kts 69°
2026-05-07 09:18 41.64110 -5.75589 31940 ft 474 kts 69°
2026-05-07 09:18 41.66552 -5.67399 31922 ft 475 kts 70°
2026-05-07 09:19 41.68581 -5.60577 31931 ft 475 kts 70°
2026-05-07 09:19 41.71433 -5.50956 31928 ft 476 kts 70°
2026-05-07 09:20 41.73461 -5.44091 31928 ft 476 kts 70°
2026-05-07 09:20 41.75892 -5.35838 31925 ft 476 kts 70°
2026-05-07 09:21 41.78298 -5.27643 31915 ft 476 kts 71°
2026-05-07 09:21 41.80716 -5.19384 31931 ft 476 kts 71°
2026-05-07 09:22 41.83128 -5.11117 31928 ft 477 kts 71°
2026-05-07 09:22 41.85538 -5.02828 31934 ft 477 kts 71°
2026-05-07 09:23 41.87945 -4.94525 31914 ft 477 kts 71°
2026-05-07 09:23 41.90347 -4.86212 31933 ft 478 kts 72°
2026-05-07 09:24 41.92745 -4.77885 31937 ft 479 kts 72°
2026-05-07 09:24 41.95141 -4.69537 31931 ft 480 kts 72°
2026-05-07 09:25 41.97524 -4.61207 31936 ft 480 kts 72°
2026-05-07 09:25 41.99917 -4.52817 31924 ft 480 kts 72°
2026-05-07 09:26 42.02306 -4.44412 31938 ft 481 kts 72°
2026-05-07 09:26 42.04688 -4.36005 31949 ft 481 kts 72°
2026-05-07 09:27 42.07066 -4.27580 31943 ft 482 kts 72°
2026-05-07 09:28 42.10610 -4.14976 31936 ft 482 kts 72°
2026-05-07 09:28 42.12976 -4.06526 31950 ft 481 kts 72°
2026-05-07 09:29 42.15331 -3.98087 31937 ft 480 kts 72°
2026-05-07 09:29 42.17662 -3.89708 31945 ft 479 kts 72°
2026-05-07 09:30 42.19998 -3.81281 31917 ft 479 kts 72°
2026-05-07 09:30 42.22323 -3.72862 31950 ft 478 kts 72°
2026-05-07 09:31 42.24641 -3.64443 31970 ft 478 kts 72°
2026-05-07 09:31 42.26954 -3.56011 31970 ft 479 kts 72°
2026-05-07 09:32 42.29249 -3.47617 31966 ft 480 kts 73°
2026-05-07 09:32 42.31555 -3.39156 31958 ft 480 kts 73°
2026-05-07 09:33 42.33861 -3.30666 31953 ft 481 kts 73°
2026-05-07 09:33 42.36163 -3.22161 31958 ft 482 kts 73°
2026-05-07 09:34 42.38462 -3.13634 31957 ft 482 kts 73°
2026-05-07 09:34 42.40755 -3.05103 31944 ft 482 kts 73°
2026-05-07 09:35 42.43028 -2.96620 31970 ft 482 kts 73°
2026-05-07 09:35 42.44471 -2.87874 31981 ft 473 kts 92°
2026-05-07 09:36 42.43623 -2.79198 31979 ft 463 kts 110°
2026-05-07 09:36 42.41835 -2.70872 31972 ft 463 kts 110°
2026-05-07 09:37 42.40048 -2.62486 31956 ft 463 kts 110°
2026-05-07 09:37 42.38299 -2.54088 31976 ft 464 kts 109°
2026-05-07 09:38 42.36558 -2.45681 31970 ft 464 kts 109°
2026-05-07 09:38 42.34809 -2.37268 31975 ft 464 kts 109°
2026-05-07 09:39 42.33064 -2.28915 31984 ft 464 kts 110°
2026-05-07 09:39 42.31298 -2.20504 31986 ft 465 kts 110°
2026-05-07 09:40 42.29524 -2.12086 31996 ft 466 kts 110°
2026-05-07 09:40 42.27742 -2.03657 31991 ft 467 kts 110°
2026-05-07 09:41 42.25947 -1.95220 32001 ft 467 kts 110°
2026-05-07 09:41 42.24141 -1.86784 31987 ft 467 kts 110°
2026-05-07 09:42 42.22342 -1.78407 32004 ft 468 kts 110°
2026-05-07 09:42 42.20524 -1.69971 32004 ft 468 kts 110°
2026-05-07 09:43 42.18700 -1.61537 32006 ft 469 kts 110°
2026-05-07 09:43 42.16869 -1.53103 32000 ft 469 kts 110°
2026-05-07 09:44 42.15030 -1.44667 31999 ft 469 kts 110°
2026-05-07 09:44 42.13183 -1.36228 31996 ft 469 kts 110°
2026-05-07 09:45 42.11343 -1.27849 32001 ft 469 kts 110°
2026-05-07 09:45 42.09487 -1.19434 32003 ft 469 kts 110°
2026-05-07 09:46 42.07610 -1.11018 31988 ft 469 kts 110°
2026-05-07 09:46 42.05729 -1.02619 32002 ft 469 kts 110°
2026-05-07 09:47 42.03845 -0.94222 32001 ft 469 kts 110°
2026-05-07 09:47 42.01954 -0.85825 32003 ft 469 kts 110°
2026-05-07 09:48 42.00060 -0.77422 32007 ft 470 kts 110°
2026-05-07 09:48 41.98166 -0.69012 32006 ft 470 kts 111°
2026-05-07 09:49 41.96265 -0.60602 32014 ft 470 kts 111°
2026-05-07 09:49 41.94368 -0.52248 32015 ft 470 kts 111°
2026-05-07 09:50 41.92452 -0.43837 32020 ft 471 kts 111°
2026-05-07 09:50 41.90528 -0.35422 32013 ft 471 kts 111°
2026-05-07 09:51 41.88599 -0.27032 32001 ft 471 kts 111°
2026-05-07 09:51 41.87620 -0.22795 31371 ft 477 kts 111°
2026-05-07 09:51 41.86641 -0.18556 30715 ft 474 kts 111°
2026-05-07 09:51 41.85664 -0.14329 29975 ft 474 kts 111°
2026-05-07 09:52 41.84685 -0.10102 29104 ft 474 kts 111°
2026-05-07 09:52 41.83708 -0.05890 28300 ft 472 kts 111°
2026-05-07 09:52 41.82734 -0.01697 27687 ft 467 kts 111°
2026-05-07 09:52 41.81782 0.02394 27079 ft 462 kts 111°
2026-05-07 09:53 41.80831 0.06473 26541 ft 456 kts 111°
2026-05-07 09:53 41.79889 0.10506 25979 ft 451 kts 111°
2026-05-07 09:53 41.78954 0.14497 25422 ft 447 kts 110°
2026-05-07 09:53 41.78022 0.18443 24865 ft 442 kts 111°
2026-05-07 09:54 41.77092 0.22312 24689 ft 429 kts 111°
2026-05-07 09:54 41.76188 0.26064 24502 ft 417 kts 111°
2026-05-07 09:54 41.75307 0.29714 24335 ft 406 kts 111°
2026-05-07 09:54 41.74184 0.33098 24032 ft 392 kts 129°
2026-05-07 09:55 41.72513 0.35928 23710 ft 384 kts 133°
2026-05-07 09:55 41.70824 0.38689 23200 ft 383 kts 132°
2026-05-07 09:55 41.69149 0.41455 22740 ft 380 kts 132°
2026-05-07 09:55 41.67500 0.44207 22312 ft 377 kts 131°
2026-05-07 09:56 41.65895 0.46908 21894 ft 374 kts 131°
2026-05-07 09:56 41.64283 0.49628 21462 ft 371 kts 131°
2026-05-07 09:56 41.62685 0.52330 21047 ft 369 kts 131°
2026-05-07 09:56 41.61099 0.55009 20626 ft 366 kts 131°
2026-05-07 09:57 41.59522 0.57673 20222 ft 364 kts 131°
2026-05-07 09:57 41.57956 0.60314 19814 ft 362 kts 131°
2026-05-07 09:57 41.56393 0.62947 19407 ft 360 kts 131°
2026-05-07 09:57 41.54808 0.65511 18993 ft 357 kts 135°
2026-05-07 09:58 41.53060 0.67841 18601 ft 354 kts 139°
2026-05-07 09:58 41.51263 0.70084 18184 ft 352 kts 139°
2026-05-07 09:58 41.49464 0.72300 17731 ft 350 kts 139°
2026-05-07 09:58 41.47701 0.74479 17315 ft 348 kts 139°
2026-05-07 09:59 41.45929 0.76682 16893 ft 346 kts 139°
2026-05-07 09:59 41.44180 0.78868 16499 ft 344 kts 139°
2026-05-07 09:59 41.42441 0.81049 16106 ft 342 kts 139°
2026-05-07 09:59 41.40711 0.83223 15713 ft 340 kts 139°
2026-05-07 10:00 41.38997 0.85378 15323 ft 338 kts 139°
2026-05-07 10:00 41.37284 0.87532 14935 ft 337 kts 139°
2026-05-07 10:00 41.35586 0.89666 14540 ft 336 kts 138°
2026-05-07 10:00 41.33883 0.91805 14155 ft 335 kts 139°
2026-05-07 10:01 41.32193 0.93928 13769 ft 334 kts 139°
2026-05-07 10:01 41.30501 0.96051 13339 ft 333 kts 138°
2026-05-07 10:01 41.28840 0.98132 12933 ft 332 kts 138°
2026-05-07 10:01 41.27165 1.00230 12534 ft 330 kts 138°
2026-05-07 10:02 41.25649 1.02517 11962 ft 336 kts 120°
2026-05-07 10:02 41.24922 1.05442 11621 ft 333 kts 100°
2026-05-07 10:02 41.24686 1.08517 11202 ft 333 kts 95°
2026-05-07 10:02 41.24545 1.11575 10914 ft 329 kts 94°
2026-05-07 10:03 41.24424 1.14550 10804 ft 315 kts 94°
2026-05-07 10:03 41.24306 1.17390 10552 ft 303 kts 94°
2026-05-07 10:03 41.24183 1.20149 10245 ft 294 kts 94°
2026-05-07 10:03 41.24058 1.22823 9891 ft 288 kts 94°
2026-05-07 10:04 41.23930 1.25440 9596 ft 279 kts 94°
2026-05-07 10:04 41.23805 1.27950 9293 ft 272 kts 94°
2026-05-07 10:04 41.23680 1.30424 9006 ft 265 kts 94°
2026-05-07 10:04 41.23555 1.32857 8752 ft 263 kts 94°
2026-05-07 10:05 41.23429 1.35283 8488 ft 262 kts 94°
2026-05-07 10:05 41.23303 1.37693 8220 ft 261 kts 94°
2026-05-07 10:05 41.23176 1.40100 7955 ft 260 kts 94°
2026-05-07 10:05 41.23050 1.42485 7691 ft 259 kts 94°
2026-05-07 10:06 41.22967 1.44064 7517 ft 258 kts 94°
2026-05-07 10:06 41.22797 1.47241 7165 ft 257 kts 94°
2026-05-07 10:06 41.22671 1.49608 6898 ft 257 kts 94°
2026-05-07 10:06 41.22544 1.51970 6633 ft 256 kts 94°
2026-05-07 10:07 41.22417 1.54323 6370 ft 255 kts 94°
2026-05-07 10:07 41.22289 1.56686 6043 ft 257 kts 93°
2026-05-07 10:07 41.22160 1.59052 5767 ft 256 kts 94°
2026-05-07 10:07 41.22033 1.61378 5500 ft 254 kts 94°
2026-05-07 10:08 41.21907 1.63687 5236 ft 247 kts 94°
2026-05-07 10:08 41.21785 1.65896 5124 ft 233 kts 94°
2026-05-07 10:08 41.21669 1.67990 4950 ft 223 kts 93°
2026-05-07 10:08 41.21556 1.70030 4672 ft 219 kts 93°
2026-05-07 10:09 41.21446 1.72030 4361 ft 216 kts 94°
2026-05-07 10:09 41.21374 1.73340 4189 ft 212 kts 93°
2026-05-07 10:09 41.21267 1.75257 3895 ft 205 kts 94°
2026-05-07 10:09 41.21163 1.77110 3584 ft 198 kts 94°
2026-05-07 10:10 41.21061 1.78917 3278 ft 195 kts 94°
2026-05-07 10:10 41.20961 1.80705 3008 ft 191 kts 95°
2026-05-07 10:10 41.20950 1.82391 2964 ft 178 kts 75°
2026-05-07 10:10 41.21479 1.83828 2992 ft 170 kts 63°
2026-05-07 10:11 41.22001 1.85227 2987 ft 169 kts 67°
2026-05-07 10:11 41.22491 1.86649 2982 ft 169 kts 67°
2026-05-07 10:11 41.22970 1.88053 2995 ft 164 kts 66°
2026-05-07 10:11 41.23437 1.89427 2927 ft 163 kts 67°
2026-05-07 10:12 41.23907 1.90812 2723 ft 166 kts 67°
2026-05-07 10:12 41.24383 1.92211 2493 ft 166 kts 66°
2026-05-07 10:12 41.24840 1.93554 2285 ft 156 kts 68°
2026-05-07 10:12 41.25283 1.94855 2088 ft 152 kts 69°
2026-05-07 10:13 41.25704 1.96098 1885 ft 145 kts 68°
2026-05-07 10:13 41.26109 1.97287 1698 ft 141 kts 68°
2026-05-07 10:13 41.26511 1.98470 1507 ft 140 kts 68°
2026-05-07 10:13 41.26912 1.99646 1304 ft 139 kts 68°
2026-05-07 10:14 41.27306 2.00800 1124 ft 137 kts 68°
2026-05-07 10:14 41.27704 2.01971 951 ft 142 kts 67°
2026-05-07 10:14 41.28109 2.03160 749 ft 139 kts 66°
2026-05-07 10:14 41.28504 2.04310 548 ft 136 kts 67°
2026-05-07 10:15 41.28898 2.05472 339 ft 140 kts 68°
2026-05-07 10:15 41.29297 2.06649 152 ft 137 kts 66°
2026-05-07 10:15 41.29687 2.07782 19 ft 129 kts 67°
2026-05-07 10:15 41.29998 2.08694 22 ft 88 kts 65°
2026-05-07 10:16 41.30225 2.09324 16 ft 62 kts 56°
2026-05-07 10:16 41.30455 2.09527 18 ft 24 kts 338°
2026-05-07 10:16 41.30468 2.09353 18 ft 22 kts 244°
2026-05-07 10:16 41.30409 2.09173 19 ft 21 kts 246°
2026-05-07 10:17 41.30350 2.08999 18 ft 20 kts 246°
2026-05-07 10:17 41.30293 2.08831 19 ft 20 kts 245°
2026-05-07 10:17 41.30237 2.08668 20 ft 19 kts 245°
2026-05-07 10:17 41.30200 2.08506 18 ft 18 kts 290°
2026-05-07 10:18 41.30270 2.08450 18 ft 4 kts 337°
2026-05-07 10:18 41.30294 2.08433 19 ft 4 kts 329°
2026-05-07 10:18 41.30315 2.08409 18 ft 4 kts 313°
2026-05-07 10:18 41.30333 2.08380 19 ft 4 kts 307°
2026-05-07 10:19 41.30352 2.08344 21 ft 6 kts 304°
2026-05-07 10:19 41.30363 2.08323 20 ft 1 kts 305°
2026-05-07 10:19 41.30365 2.08321 20 ft 1 kts 305°
2026-05-07 10:19 41.30365 2.08320 20 ft 0 kts 306°